Regional Weather Roundup
Issued by NWS

Home | Current Version | Previous Version | Graphics & Text | Print | Product List | Glossary On
Versions: 1 2 3 4 5 6 7 8 9 10 11 12 13 14 15 16 17 18 19 20 21 22 23 24 25 26 27 28 29 30 31 32 33 34 35 36 37 38 39 40 41 42 43 44 45 46 47 48 49 50
000
ASUS43 KIND 191609
RWRIN

WEATHER ROUNDUP FOR INDIANA
NATIONAL WEATHER SERVICE INDIANAPOLIS IN
1100 AM EST SUN NOV 19 2017

NOTE: "FAIR" INDICATES FEW OR NO CLOUDS BELOW 12,000 FEET WITH NO
SIGNIFICANT WEATHER AND/OR OBSTRUCTIONS TO VISIBILITY.

* - STATION DOES NOT REPORT WEATHER SUCH AS PRECIPITATION OR FOG.

+ - STATION NOT QUALITY CONTROLLED BY THE NATIONAL WEATHER SERVICE.
    USE DATA WITH CAUTION...ESPECIALLY DEWPOINT AND RELATIVE
    HUMIDITY OBSERVATIONS.

INZ001>003-010>013-019-020-191700-
NORTHWEST INDIANA

CITY           SKY/WX    TMP DP  RH WIND       PRES   REMARKS
GARY /AIRPORT/ MOSUNNY   34  19  55 W17       30.05R WCI  23
KNOX *+        CLOUDY    32  27  80 W15       30.01R WCI  22
LA PORTE +     CLOUDY    32  23  70 W13G23    30.01R WCI  22
MICHIGAN CITY+ CLOUDY    32  23  69 W12G21    30.02R WCI  23
MONTICELLO +   CLOUDY    31  23  72 W12G18    30.04S WCI  21
RENSSELAER +   CLOUDY    32  23  69 W13       30.06R WCI  22
VALPARAISO     CLOUDY    33  22  63 W14       30.03R WCI  23

$$

LMZ046-743>745-191700-
SOUTHERN LAKE MICHIGAN

STATION/POSITION TIME  TEMP    WIND        PRES    WAVE
                       AIR SEA DIR/SP/G            HT
                 (UTC) (F)     (DEG/KT/KT) (MB)    (FT)
BURNS HARBOR     1540   32     290/ 16/ 20 1017.3R
MICHIGAN CITY    1540   32     270/ 23/ 26   N/A

$$

INZ004-005-014>016-021>024-191700-
NORTH CENTRAL INDIANA

CITY           SKY/WX    TMP DP  RH WIND       PRES   REMARKS
ELKHART        CLOUDY    34  25  69 W17       29.96R WCI  23
GOSHEN         CLOUDY    33  25  72 W14       29.96R WCI  23
LOGANSPORT +   CLOUDY    32  25  74 W14G22    30.04R WCI  22
PERU/GRISSOM   CLOUDY    33  26  75 W16       30.01R WCI  22
ROCHESTER +    PTSUNNY   34  28  80 W10G17    30.01R WCI  26
SOUTH BEND     CLOUDY    32  23  69 W17       29.99R WCI  21
WARSAW +       CLOUDY    32  25  74 W16G23    29.97S WCI  21

$$

INZ006>009-017-018-025>027-191700-
NORTHEAST INDIANA

CITY           SKY/WX    TMP DP  RH WIND       PRES   REMARKS
AUBURN +       CLOUDY    36  28  75 W13G25    29.95R WCI  27
FORT WAYNE     CLOUDY    37  27  67 W21       29.96R WCI  26
HUNTINGTON +   CLOUDY    35  23  61 W9G21     29.98S WCI  27
KENDALLVILLE + CLOUDY    34  27  74 W9G18     29.93R WCI  27

$$

INZ028-029-035-036-043>045-051>053-191700-
WEST CENTRAL INDIANA

CITY           SKY/WX    TMP DP  RH WIND       PRES   REMARKS
CRAWFORDSVL +  CLOUDY    28  23  80 W12G17    30.05S WCI  18
GREENCASTLE +  CLOUDY    32  23  69 W8G16     30.09S WCI  25
LAFAYETTE      CLOUDY    30  24  78 W14       30.07R WCI  19
TERRE HAUTE    CLOUDY    32  24  72 W10       30.12R WCI  24

$$

INZ030>032-037>040-046>048-054>057-064-065-191700-
CENTRAL INDIANA

CITY           SKY/WX    TMP DP  RH WIND       PRES   REMARKS
CP ATTERBURY + CLOUDY    36  28  75 W9        30.09R WCI  29
COLUMBUS       PTSUNNY   36  27  69 W13G20    30.08R WCI  27
FRANKFORT +    CLOUDY    33  27  80 W16       30.07R WCI  22
GREENWOOD *+   CLOUDY    37  29  72 W10G22    30.07R WCI  30
INDIANAPOLIS   PTSUNNY   34  26  72 W15       30.07R WCI  24
-EAGLE CREEK   CLOUDY    34  25  69 W14       30.06R WCI  25
KOKOMO +       CLOUDY    33  27  78 W18       30.03R WCI  22
MARION +       CLOUDY    32  29  88 W17       30.02R FOG     WCI  21
MT COMFORT *+  CLOUDY    34  30  86 W15       30.05R WCI  24
SHELBYVILLE    CLOUDY    36  26  67 W18       30.05R WCI  26
ZIONSVILLE +   CLOUDY    31  27  85 W9        30.06R WCI  22

$$

INZ033-034-041-042-049-050-058-059-191700-
EAST CENTRAL INDIANA

CITY           SKY/WX    TMP DP  RH WIND       PRES   REMARKS
MUNCIE         CLOUDY    36  27  69 W15       30.01R WCI  27
RICHMOND +     CLOUDY    34  32  93 W17       30.00R WCI  23

$$

INZ060-061-067>069-081>083-085>088-191700-
SOUTHWEST INDIANA

CITY           SKY/WX    TMP DP  RH WIND       PRES   REMARKS
EVANSVILLE     MOSUNNY   36  25  64 W9G20     30.19R WCI  29
HUNTINGBURG +  CLOUDY    35  26  69 W14       30.16R WCI  26
WASHINGTON +   CLOUDY    34  23  64 NW12G18   30.15R WCI  25

$$

INZ062-063-066-070>080-084-089>092-191700-
SOUTH CENTRAL AND SOUTHEAST INDIANA

CITY           SKY/WX    TMP DP  RH WIND       PRES   REMARKS
BEDFORD +      CLOUDY    34  27  75 W9G18     30.11R WCI  26
BLOOMINGTON    CLOUDY    34  24  67 NW13G21   30.09R WCI  25
MADISON *+     CLOUDY    36  30  80 W10       30.10R WCI  28
NORTH VERNON + CLOUDY    34  28  80 W15       30.09R WCI  24
SEYMOUR +      CLOUDY    37  28  70 W12       30.10R WCI  30

$$





USA.gov is the U.S. government's official web portal to all federal, state and local government web resources and services.